sat.trackr.live / text

‹ back to catalog

QIANFAN-136

NORAD 69082 · 2026-104K

PAYLOAD ACTIVE UNKNOWN

§ Identity

Operator
Country
PRC
Launch date
2026-05-12
Launch site
TAISC
Launch vehicle
Mass (kg)
RCS (m²)

External: N2YO · Heavens-Above · Gunter

§ Orbital elements

Epoch: 2026-05-25T04:33:29.604672Z

Period
101.41 min
Inclination
88.9865°
Eccentricity
0.0003352
Mean motion
14.19910021 rev/d
Perigee alt
823.2 km
Apogee alt
828.1 km
Semi-major
7,203.8 km
B*
3.1147e-5
RAAN
344.2476°
Arg perigee
173.3594°
Mean anomaly
186.7641°
Rev number
182

§ Raw data

QIANFAN-1361 69082U 26104K   26145.18992598  .00000081  00000+0  31147-4 0  99952 69082  88.9865 344.2476 0003352 173.3594 186.7641 14.19910021  1828

JSON: /api/v1/satellites/69082 · /tle

For live sub-satellite position, see the globe view (requires WebGL).

§ Visibility from observer

Set your observer location to see the next 7 days of passes ≥ 10°. The values pass through the URL so the page stays shareable.

No JS? Fill the form by hand. The geolocation button needs JavaScript.